Date,TemperatureHighF,TemperatureAvgF,TemperatureLowF,DewpointHighF,DewpointAvgF,DewpointLowF,HumidityHigh,HumidityAvg,HumidityLow,PressureMaxIn,PressureMinIn,WindSpeedMaxMPH,WindSpeedAvgMPH,GustSpeedMaxMPH,PrecipitationSumIn
2013-1-1,32.9,9.4,24.4,32.0,-55.5,-99.9,98,34,91,30.29,30.08,5,-645,7,0.00
2013-1-2,32.9,18.3,14.2,22.0,-20.3,-99.9,95,47,39,30.31,30.22,7,-322,9,0.00
2013-1-3,39.3,24.6,20.4,27.0,0.2,-99.9,94,62,54,30.46,30.29,9,-174,9,0.01
2013-1-4,43.7,28.5,22.2,26.0,4.6,-99.9,94,58,45,30.50,30.36,7,-151,12,0.00
2013-1-5,40.5,28.8,28.6,33.0,4.6,-99.9,90,63,66,30.36,30.19,8,-188,11,0.00
2013-1-6,40.0,22.9,26.1,30.0,-14.1,-99.9,90,47,46,30.39,30.22,7,-296,12,0.00
2013-1-7,48.1,30.7,25.2,27.0,3.1,-99.9,74,50,43,30.40,30.16,8,-168,13,0.00
2013-1-8,53.4,35.3,31.8,43.0,7.7,-99.9,95,56,51,30.22,30.07,7,-193,12,0.22
2013-1-9,54.3,36.9,42.0,45.0,6.9,-99.9,98,57,57,30.38,30.22,13,-236,15,0.03
2013-1-10,51.0,22.7,43.7,51.0,-31.8,-99.9,99,43,56,30.30,29.81,15,-528,21,0.01
2013-1-11,61.7,37.2,45.6,50.0,-1.8,-99.9,96,49,62,29.86,29.73,10,-330,15,0.00
2013-1-12,53.0,41.7,27.5,49.0,37.2,26.0,95,84,58,29.94,29.79,11,3,14,0.24
2013-1-13,26.9,20.4,13.6,26.0,18.2,12.0,95,91,84,30.40,29.91,9,3,16,0.00
2013-1-14,27.2,18.7,13.2,19.0,13.9,11.0,90,82,64,30.55,30.39,7,2,8,0.00
2013-1-15,30.3,21.5,15.3,20.0,15.2,11.0,93,78,49,30.42,30.22,6,3,7,0.00
2013-1-16,39.8,26.7,14.3,22.0,18.5,13.0,94,74,47,30.24,30.14,10,2,12,0.01
2013-1-17,42.9,33.0,26.5,31.0,25.2,20.0,92,74,53,30.51,30.22,6,2,12,0.00
2013-1-18,56.8,39.5,26.5,31.0,25.6,20.0,87,62,27,30.54,30.21,9,3,13,0.00
2013-1-19,62.6,48.2,36.5,37.0,32.8,25.0,72,57,37,30.21,30.04,13,3,24,0.00
2013-1-20,52.8,39.1,25.9,35.0,22.6,15.0,84,55,28,30.30,30.17,9,3,9,0.00
2013-1-21,32.1,23.5,16.6,16.0,13.2,11.0,80,65,51,30.41,30.28,9,2,16,0.00
2013-1-22,31.1,24.1,18.1,18.0,14.5,12.0,79,67,55,30.44,30.30,8,3,10,0.00
2013-1-23,56.8,36.3,21.1,41.0,28.2,18.0,86,73,55,30.33,30.18,8,3,11,0.00
2013-1-24,33.6,27.8,21.9,24.0,14.7,9.0,69,58,49,30.43,30.19,12,7,18,0.00
2013-1-25,47.3,33.9,24.5,29.0,25.4,18.0,95,73,47,30.30,30.16,7,2,11,0.00
2013-1-26,55.3,43.4,32.4,28.0,24.9,22.0,68,50,31,30.32,30.18,11,4,14,0.00
2013-1-27,54.3,45.2,38.5,53.0,41.5,27.0,97,87,53,30.18,29.94,14,7,20,0.03
2013-1-28,72.8,62.9,54.3,61.0,57.9,53.0,95,85,63,29.97,29.80,19,4,24,0.00
2013-1-29,66.9,58.4,48.7,62.0,56.2,47.0,98,92,82,29.80,29.43,13,4,21,2.67
2013-1-30,48.2,31.9,24.5,47.0,28.7,19.0,98,88,79,30.04,29.40,18,7,25,0.00
2013-1-31,38.3,23.3,10.4,28.0,17.8,4.0,93,80,58,30.47,30.02,15,4,18,0.00
2013-2-1,32.2,19.6,5.8,15.0,8.3,1.0,85,63,45,30.54,30.27,10,3,12,0.00
2013-2-2,49.2,35.7,23.2,35.0,26.4,15.0,85,70,56,30.29,30.16,9,3,17,0.00
2013-2-3,49.1,40.7,33.8,31.0,25.9,21.0,81,58,36,30.28,30.00,14,4,18,0.00
2013-2-4,58.1,45.9,34.4,43.0,33.4,24.0,86,63,47,30.00,29.82,12,3,18,0.02
2013-2-5,60.1,44.4,31.1,38.0,32.3,29.0,94,67,37,30.09,29.92,9,2,17,0.00
2013-2-6,55.4,45.2,35.0,38.0,33.7,29.0,80,65,47,30.16,30.00,13,7,15,0.00
2013-2-7,55.8,46.4,39.2,50.0,42.8,37.0,97,88,75,30.08,29.87,9,4,12,0.47
2013-2-8,46.5,35.9,30.6,38.0,31.0,28.0,96,83,58,30.32,30.08,9,4,12,0.00
2013-2-9,38.6,33.3,29.6,34.0,30.2,28.0,95,88,71,30.28,29.94,15,8,19,0.10
2013-2-10,59.5,47.3,35.9,52.0,36.5,25.0,98,71,33,29.99,29.64,21,8,31,0.26
2013-2-11,49.1,38.3,28.9,28.0,25.7,24.0,84,62,38,30.18,30.00,8,2,13,0.00
2013-2-12,44.3,37.6,31.6,33.0,28.6,25.0,95,71,54,30.18,29.93,7,2,9,0.02
2013-2-13,46.0,36.4,30.7,35.0,31.7,30.0,97,85,61,29.99,29.92,13,2,15,0.27
2013-2-14,52.8,42.4,34.2,34.0,30.1,25.0,80,63,42,30.14,29.94,7,3,13,0.00
2013-2-15,42.0,33.3,25.0,30.0,19.4,12.0,84,59,35,30.30,30.14,9,3,15,0.00
2013-2-16,33.8,27.8,19.5,21.0,17.5,11.0,91,67,47,30.36,30.19,6,2,12,0.00
2013-2-17,59.9,43.8,29.4,33.0,25.8,19.0,66,51,33,30.19,29.85,9,4,13,0.00
2013-2-18,53.5,45.1,29.7,50.0,38.4,24.0,95,78,64,30.06,29.58,21,6,24,0.15
2013-2-19,39.5,30.3,23.2,24.0,15.5,9.0,79,57,33,30.34,30.07,15,4,21,0.00
2013-2-20,32.8,27.3,22.0,13.0,11.0,8.0,63,51,38,30.36,30.19,10,4,12,0.00
2013-2-21,30.5,27.8,25.7,30.0,23.9,12.0,97,86,50,30.19,29.77,16,6,19,0.01
2013-2-22,32.0,25.4,20.7,31.0,22.0,19.0,97,87,72,30.13,29.86,9,3,16,0.00
2013-2-23,38.5,26.7,15.9,24.0,19.5,14.0,93,76,53,30.14,30.02,6,1,10,0.03
2013-2-24,50.6,38.7,27.1,35.0,28.2,21.0,79,67,52,30.08,29.93,12,6,16,0.04
2013-2-25,45.5,38.3,33.5,34.0,29.5,25.0,93,72,47,29.94,29.38,20,10,27,0.44
2013-2-26,34.1,30.8,29.9,32.0,29.9,29.0,97,96,91,29.85,29.33,13,4,21,0.05
2013-2-27,31.6,30.3,28.9,29.0,27.8,26.0,96,90,82,30.05,29.81,16,5,22,0.00
2013-2-28,31.3,28.8,28.0,27.0,24.9,24.0,89,85,82,30.20,30.03,6,3,14,0.00
2013-3-1,28.0,26.8,25.4,25.0,24.3,23.0,93,90,83,30.27,30.17,8,3,12,0.00
2013-3-2,30.7,25.1,21.7,23.0,19.3,16.0,92,79,65,30.36,30.25,12,3,12,0.00
2013-3-3,49.3,35.1,20.4,28.0,23.3,17.0,91,65,41,30.26,29.89,11,5,15,0.01
2013-3-4,61.1,46.3,36.5,46.0,37.2,28.0,94,72,52,29.88,29.64,16,7,18,0.00
2013-3-5,43.7,34.3,28.2,40.0,25.7,20.0,95,72,55,30.29,29.80,19,8,25,0.03
2013-3-6,43.1,32.2,24.0,25.0,21.2,17.0,77,65,48,30.43,30.28,10,3,21,0.00
2013-3-7,57.3,42.7,29.9,32.0,27.7,23.0,79,58,31,30.34,30.19,9,5,12,0.00
2013-3-8,54.9,44.5,34.1,38.0,33.7,30.0,86,67,48,30.31,30.10,15,8,17,0.00
2013-3-9,69.0,54.4,43.1,54.0,42.5,36.0,86,66,42,30.10,29.73,14,7,22,0.14
2013-3-10,55.4,39.9,29.7,50.0,37.9,29.0,95,92,80,29.86,29.62,13,6,21,1.06
2013-3-11,39.9,30.4,25.5,30.0,25.5,24.0,95,83,58,30.06,29.84,14,6,18,0.01
2013-3-12,49.9,38.5,28.1,29.0,24.4,21.0,80,59,37,30.32,30.05,10,3,19,0.00
2013-3-13,46.6,35.0,25.4,25.0,22.1,19.0,80,61,40,30.48,30.32,7,2,12,0.00
2013-3-14,70.0,50.5,32.3,42.0,31.2,21.0,66,50,33,30.40,30.10,14,4,21,0.00
2013-3-15,80.3,64.8,49.5,49.0,43.9,40.0,77,49,27,30.10,29.72,14,3,21,0.00
2013-3-16,65.2,56.5,41.7,49.0,43.7,37.0,83,63,51,29.89,29.70,13,5,14,0.00
2013-3-17,41.6,37.8,35.2,38.0,36.3,34.0,97,94,83,29.95,29.72,15,7,19,1.00
2013-3-18,51.2,41.4,38.0,40.0,35.6,27.0,98,82,51,30.05,29.71,13,3,15,0.01
2013-3-19,47.3,38.0,28.5,30.0,23.0,13.0,81,57,32,30.26,30.05,6,2,10,0.00
2013-3-20,41.6,33.7,26.7,31.0,19.9,8.0,93,61,26,30.35,30.16,13,3,20,0.00
2013-3-21,34.1,28.3,25.5,27.0,18.8,10.0,96,70,44,30.15,29.94,12,4,13,0.00
2013-3-22,34.8,31.0,27.5,34.0,30.3,27.0,97,97,95,30.00,29.92,10,4,12,0.12
2013-3-23,38.9,36.0,32.2,38.0,34.8,32.0,98,95,86,30.00,29.76,8,4,11,0.07
2013-3-24,39.2,31.9,26.1,39.0,30.8,22.0,98,95,85,30.08,29.59,18,5,23,0.32
2013-3-25,30.7,25.7,21.3,25.0,21.7,18.0,91,85,75,30.34,30.05,15,6,24,0.01
2013-3-26,39.0,29.6,20.8,26.0,23.1,19.0,94,78,56,30.45,30.34,7,2,14,0.01
2013-3-27,50.1,38.7,25.7,32.0,25.8,21.0,83,62,42,30.39,30.23,11,5,14,0.00
2013-3-28,67.7,52.7,42.5,45.0,37.7,32.0,70,58,41,30.27,30.12,8,4,10,0.00
2013-3-29,66.2,55.3,47.1,53.0,48.2,41.0,97,78,60,30.18,30.10,7,3,8,0.13
2013-3-30,64.6,53.3,47.8,56.0,49.0,46.0,94,86,70,30.13,29.85,13,4,19,0.13
2013-3-31,65.7,55.4,47.0,50.0,44.3,39.0,97,70,38,29.96,29.83,10,3,14,0.23
2013-4-1,54.0,45.4,39.3,41.0,35.2,28.0,84,68,53,30.21,29.94,8,3,10,0.00
2013-4-2,39.5,36.1,32.4,31.0,28.7,26.0,86,75,58,30.31,30.19,8,3,10,0.11
2013-4-3,51.1,41.1,30.4,28.0,24.3,21.0,77,54,34,30.35,30.20,17,5,17,0.00
2013-4-4,53.4,45.2,39.2,32.0,28.1,24.0,69,52,38,30.20,30.06,8,2,11,0.00
2013-4-5,70.8,54.6,39.1,40.0,33.6,27.0,64,47,29,30.19,29.98,8,2,11,0.00
2013-4-6,73.4,60.7,50.6,47.0,41.6,35.0,60,51,35,29.98,29.74,19,4,24,0.00
2013-4-7,75.6,66.0,54.1,58.0,53.3,47.0,82,65,45,29.88,29.71,11,3,17,0.00
2013-4-8,75.0,65.5,57.8,61.0,58.0,54.0,88,77,60,29.77,29.68,10,4,14,0.00
2013-4-9,76.1,67.7,60.8,63.0,59.6,55.0,86,76,58,29.79,29.69,12,6,17,0.00
2013-4-10,70.0,54.9,37.0,64.0,52.0,36.0,97,90,75,29.78,29.62,13,4,19,0.72
2013-4-11,47.0,37.9,31.8,36.0,32.4,31.0,97,82,59,29.82,29.74,17,5,19,0.00
2013-4-12,51.6,41.7,34.4,36.0,31.9,27.0,87,69,53,30.05,29.80,12,4,18,0.00
2013-4-13,68.5,54.8,37.5,46.0,39.9,33.0,84,59,41,30.08,29.82,9,3,12,0.00
2013-4-14,78.0,64.5,52.2,57.0,48.6,43.0,89,60,29,29.83,29.50,17,7,21,0.04
2013-4-15,78.7,63.7,53.6,66.0,58.0,49.0,94,82,60,29.81,29.66,10,4,11,0.00
2013-4-16,62.5,51.4,47.1,58.0,49.7,46.0,98,94,81,30.01,29.82,12,5,13,0.02
2013-4-17,81.0,68.7,48.1,69.0,62.1,47.0,98,81,61,29.99,29.61,12,6,19,0.00
2013-4-18,72.6,50.3,36.9,66.0,47.2,31.0,99,89,76,29.90,29.51,16,6,26,2.06
2013-4-19,50.5,42.7,32.6,30.0,27.2,24.0,78,56,38,30.12,29.90,14,5,21,0.00
2013-4-20,65.5,51.2,35.0,40.0,33.3,28.0,77,53,30,30.25,30.11,8,2,10,0.00
2013-4-21,66.0,56.1,47.1,43.0,39.5,37.0,77,56,38,30.30,30.13,12,6,16,0.00
2013-4-22,68.5,57.4,46.6,45.0,40.0,37.0,73,54,32,30.20,29.90,10,4,13,0.00
2013-4-23,59.1,47.1,34.1,53.0,43.1,33.0,97,87,61,30.07,29.84,7,3,13,0.60
2013-4-24,51.8,40.9,32.5,35.0,31.0,27.0,97,71,42,30.32,30.07,8,3,14,0.01
2013-4-25,68.5,51.8,34.5,37.0,32.5,28.0,79,51,27,30.38,30.23,8,2,10,0.00
2013-4-26,56.1,47.8,44.9,45.0,43.1,37.0,96,85,50,30.32,30.16,11,5,17,1.19
2013-4-27,53.7,48.8,45.0,52.0,47.8,44.0,98,96,91,30.19,29.98,12,4,14,0.09
2013-4-28,72.6,56.1,46.8,53.0,48.6,46.0,98,79,44,30.03,29.87,9,2,12,0.00
2013-4-29,85.6,68.2,51.0,63.0,55.6,49.0,94,68,33,29.91,29.72,9,2,14,0.00
2013-4-30,82.3,71.2,59.3,59.0,53.7,46.0,88,58,32,29.84,29.75,7,3,14,0.00
2013-5-1,83.1,69.1,58.4,64.0,58.9,50.0,92,71,48,30.03,29.85,10,3,12,0.00
2013-5-2,62.3,48.1,33.4,60.0,46.4,33.0,97,93,83,30.19,30.00,8,2,15,0.28
2013-5-3,33.9,24.9,31.0,33.0,2.7,-99.9,98,76,97,30.17,29.93,8,-217,17,0.47
2013-5-4,43.8,32.0,31.1,40.0,14.6,-99.9,99,78,79,30.02,29.86,4,-156,6,0.37
2013-5-5,56.2,42.0,34.9,50.0,26.0,-99.9,98,76,76,30.07,29.98,9,-124,15,0.00
2013-5-6,68.1,47.5,49.0,56.0,25.5,-99.9,98,69,63,30.05,29.96,8,-175,12,0.00
2013-5-7,78.0,57.6,49.3,58.0,35.2,-99.9,98,60,41,30.05,29.95,4,-114,7,0.00
2013-5-8,73.9,58.1,56.1,61.0,36.9,-99.9,87,62,55,30.03,29.89,5,-125,7,0.02
2013-5-9,75.0,53.1,55.3,63.0,28.8,-99.9,97,65,62,29.95,29.84,10,-188,16,0.98
2013-5-10,66.3,47.0,49.9,61.0,21.8,-99.9,98,68,70,30.02,29.83,5,-220,9,0.02
2013-5-11,72.3,50.1,45.5,57.0,24.8,-99.9,99,57,35,30.17,30.01,7,-144,15,0.00
2013-5-12,66.5,45.6,41.5,41.0,9.8,-99.9,76,39,28,30.26,30.13,5,-186,13,0.00
2013-5-13,81.9,54.7,48.7,54.0,20.8,-99.9,75,42,35,30.18,30.00,7,-179,9,0.00
2013-5-14,88.8,62.1,60.5,56.0,23.4,-99.9,75,37,27,30.00,29.88,11,-189,20,0.00
2013-5-15,83.4,57.7,61.3,68.0,31.5,-99.9,97,60,57,29.93,29.83,9,-184,14,0.13
2013-5-16,65.2,46.7,59.3,62.0,21.7,-99.9,98,72,88,29.87,29.82,7,-238,7,0.13
2013-5-17,83.2,55.4,59.7,66.0,27.3,-99.9,99,61,53,29.91,29.84,4,-218,4,0.00
2013-5-18,82.2,59.3,63.9,74.0,37.4,-99.9,98,71,74,29.91,29.77,6,-186,8,0.00
2013-5-19,85.9,62.8,68.4,73.0,36.6,-99.9,99,61,48,29.81,29.61,10,-187,16,0.00
2013-5-20,74.8,50.2,59.9,70.0,20.6,-99.9,98,65,74,29.80,29.64,18,-269,29,1.41
2013-5-21,68.3,61.3,56.7,63.0,59.4,55.0,99,93,81,29.83,29.54,8,2,15,0.04
2013-5-22,72.2,62.4,52.0,59.0,55.9,52.0,99,81,59,29.91,29.73,8,2,17,0.01
2013-5-23,75.6,62.9,52.6,60.0,55.5,52.0,98,78,53,30.16,29.91,3,1,9,0.00
2013-5-24,74.9,61.4,50.0,53.0,48.9,45.0,95,67,38,30.31,30.16,7,3,11,0.00
2013-5-25,82.4,66.9,52.7,66.0,55.8,45.0,85,68,53,30.24,30.05,4,2,8,0.00
2013-5-26,85.5,72.6,59.9,70.0,64.2,58.0,93,76,57,30.10,29.93,5,2,11,0.00
2013-5-27,83.6,72.9,63.9,71.0,65.9,61.0,93,79,63,29.95,29.74,6,2,16,0.00
2013-5-28,83.0,73.3,67.5,70.0,66.3,64.0,91,79,64,29.84,29.72,7,2,15,0.00
2013-5-29,80.9,73.4,66.1,68.0,65.4,63.0,91,77,63,29.86,29.72,7,2,14,0.00
2013-5-30,82.6,69.5,60.1,70.0,64.7,59.0,98,85,64,29.82,29.68,8,2,19,1.70
2013-5-31,84.5,72.1,63.4,75.0,68.6,62.0,98,89,71,29.80,29.64,8,2,14,0.36
2013-6-1,75.5,65.9,58.9,67.0,62.1,56.0,98,88,65,29.93,29.67,7,2,14,1.56
2013-6-2,62.8,58.0,53.4,57.0,55.1,52.0,98,90,80,30.03,29.92,5,1,8,0.00
2013-6-3,78.5,63.3,48.6,61.0,55.2,48.0,99,78,50,30.06,29.91,4,1,5,0.00
2013-6-4,78.5,65.4,56.7,65.0,59.9,55.0,93,82,63,29.99,29.89,5,2,6,0.00
2013-6-5,77.8,65.4,59.4,68.0,62.0,58.0,96,89,71,29.96,29.81,4,1,8,0.01
2013-6-6,70.9,63.0,55.4,65.0,59.9,55.0,99,89,76,29.90,29.84,2,0,7,0.00
2013-6-7,74.8,63.2,51.6,60.0,55.5,51.0,99,78,53,29.95,29.87,5,1,7,0.01
2013-6-8,83.7,68.1,52.9,63.0,56.7,50.0,91,69,45,29.94,29.82,6,1,7,0.00
2013-6-9,78.3,67.9,59.7,68.0,60.7,58.0,96,79,54,29.88,29.78,5,1,13,0.21
2013-6-10,89.0,74.9,59.4,73.0,65.6,57.0,94,74,57,29.87,29.79,5,1,11,0.00
2013-6-11,95.2,80.9,69.6,75.0,68.4,64.0,89,68,38,29.94,29.84,8,1,13,0.00
2013-6-12,90.6,80.7,69.2,74.0,70.1,67.0,94,72,51,29.90,29.79,11,2,20,0.00
2013-6-13,87.7,77.3,67.9,72.0,67.6,61.0,87,73,54,29.95,29.84,7,1,12,0.00
2013-6-14,91.7,75.9,64.0,73.0,66.8,62.0,95,75,52,30.00,29.89,4,2,6,0.00
2013-6-15,77.2,69.9,65.4,73.0,66.3,63.0,97,88,71,30.01,29.88,6,1,10,0.16
2013-6-16,89.3,74.6,65.5,76.0,69.1,65.0,98,84,61,29.96,29.85,6,1,9,0.11
2013-6-17,71.7,67.6,63.0,69.0,65.8,62.0,97,94,88,29.94,29.80,6,1,10,0.09
2013-6-18,88.7,71.1,57.2,71.0,63.4,57.0,99,79,50,30.00,29.89,5,1,9,0.01
2013-6-19,91.8,75.5,60.2,72.0,64.7,58.0,94,72,43,30.01,29.93,3,1,4,0.00
2013-6-20,90.1,77.6,65.3,73.0,67.5,62.0,90,73,50,30.03,29.94,4,1,9,0.00
2013-6-21,93.3,80.5,69.1,77.0,71.6,66.0,92,76,56,30.03,29.93,4,1,13,0.00
2013-6-22,92.2,79.9,70.2,76.0,72.0,68.0,96,78,55,30.02,29.89,6,1,9,0.00
2013-6-23,93.6,79.8,67.1,76.0,70.5,65.0,95,75,47,29.96,29.85,5,1,10,0.00
2013-6-24,93.2,80.7,68.6,74.0,70.3,67.0,95,73,47,30.00,29.88,5,1,12,0.00
2013-6-25,91.2,79.9,69.2,75.0,69.7,67.0,92,73,52,29.91,29.77,7,1,14,0.00
2013-6-26,92.9,81.8,70.8,77.0,72.7,68.0,91,75,56,29.83,29.76,9,2,14,0.00
2013-6-27,96.5,83.0,72.2,80.0,76.1,71.0,98,81,54,29.89,29.77,7,1,10,0.00
2013-6-28,88.5,77.0,65.7,76.0,68.1,61.0,99,76,49,29.85,29.74,7,1,34,0.32
2013-6-29,83.0,73.2,62.3,63.0,59.1,55.0,87,64,40,29.79,29.71,8,2,15,0.00
2013-6-30,78.2,67.8,59.5,63.0,60.3,58.0,94,78,56,29.92,29.76,6,2,10,0.00
2013-7-1,77.8,68.0,57.7,62.0,58.0,52.0,97,72,50,29.99,29.91,6,1,9,0.00
2013-7-2,80.2,67.3,54.2,58.0,54.6,51.0,91,66,42,30.04,29.97,6,1,10,0.00
2013-7-3,88.2,70.2,56.9,63.0,57.7,53.0,88,67,38,30.08,29.97,6,1,8,0.00
2013-7-4,90.5,71.0,60.6,64.0,59.0,55.0,92,69,38,30.04,29.93,4,1,7,0.13
2013-7-5,91.7,75.5,60.2,66.0,61.2,57.0,91,64,38,30.02,29.91,3,1,6,0.00
2013-7-6,92.9,76.0,63.9,69.0,63.9,61.0,91,69,36,29.98,29.88,3,1,6,0.00
2013-7-7,95.0,80.1,66.9,71.0,65.5,62.0,89,64,35,30.00,29.92,4,1,7,0.00
2013-7-8,93.9,79.8,69.4,74.0,68.9,65.0,88,71,45,30.04,29.96,5,1,7,0.00
2013-7-9,95.3,82.9,70.9,74.0,70.3,67.0,88,68,45,30.02,29.88,5,1,10,0.00
2013-7-10,96.3,81.7,69.9,76.0,71.1,68.0,94,72,40,29.96,29.85,2,0,8,0.01
2013-7-11,93.3,79.9,70.0,73.0,67.1,61.0,94,68,35,29.96,29.89,5,2,6,0.00
2013-7-12,93.1,75.9,63.7,63.0,58.8,54.0,83,59,29,30.03,29.94,6,2,7,0.00
2013-7-13,87.2,74.1,61.2,64.0,59.6,54.0,82,62,39,30.02,29.91,5,1,6,0.00
2013-7-14,88.9,76.2,63.0,65.0,60.7,58.0,85,62,37,30.04,29.96,6,2,9,0.00
2013-7-15,91.6,74.6,67.5,74.0,66.1,-99.9,94,78,47,30.13,30.03,5,-10,7,0.00
2013-7-16,93.0,77.6,68.6,76.0,70.9,68.0,98,82,48,30.23,30.13,10,1,11,0.03
2013-7-17,95.6,80.9,69.4,77.0,70.6,68.0,95,73,42,30.27,30.13,4,1,5,0.01
2013-7-18,96.8,83.2,71.8,72.0,68.5,64.0,83,63,38,30.16,29.96,4,1,7,0.00
2013-7-19,96.6,79.4,69.0,73.0,69.0,66.0,91,73,41,29.97,29.86,5,1,7,0.00
2013-7-20,94.7,77.2,68.1,74.0,68.9,66.0,96,77,47,29.91,29.80,9,1,18,0.21
2013-7-21,83.8,73.8,67.8,74.0,70.2,67.0,98,89,68,29.89,29.79,3,0,6,0.26
2013-7-22,86.4,75.9,65.0,73.0,68.5,63.0,98,80,53,29.87,29.78,11,2,18,0.03
2013-7-23,94.9,80.4,68.4,77.0,71.6,66.0,93,76,52,29.83,29.71,12,2,14,0.00
2013-7-24,87.0,75.7,68.3,72.0,67.2,60.0,96,76,46,29.97,29.81,5,1,7,0.00
2013-7-25,90.5,75.2,61.7,66.0,62.1,57.0,85,66,42,30.06,29.97,3,1,5,0.00
2013-7-26,70.0,66.7,63.3,67.0,64.6,63.0,98,93,79,30.01,29.95,3,0,4,1.73
2013-7-27,78.1,68.2,60.7,65.0,61.1,58.0,99,80,52,30.02,29.94,6,1,8,0.01
2013-7-28,73.6,66.3,60.3,65.0,60.7,57.0,93,82,69,30.04,29.96,3,0,4,0.00
2013-7-29,82.2,71.5,62.9,74.0,67.0,61.0,94,86,73,30.08,29.98,3,1,6,0.09
2013-7-30,83.4,73.3,67.8,77.0,71.0,67.0,98,93,79,30.02,29.93,6,1,14,2.11
2013-7-31,86.5,76.1,68.8,76.0,71.5,66.0,99,87,63,30.01,29.94,3,1,7,0.01
2013-8-1,92.1,75.9,61.9,69.0,66.2,61.0,98,75,44,30.06,29.94,3,1,5,0.00
2013-8-2,88.6,75.2,68.3,77.0,69.7,65.0,92,83,68,29.95,29.82,5,1,6,0.00
2013-8-3,90.2,76.3,66.1,75.0,71.1,65.0,98,85,58,30.04,29.84,13,1,15,2.25
2013-8-4,72.0,70.4,68.1,71.0,69.6,67.0,98,97,96,30.11,29.99,5,0,5,1.10
2013-8-5,88.1,73.0,68.3,80.0,71.3,68.0,99,94,72,30.02,29.80,6,1,9,0.79
2013-8-6,80.9,72.7,67.7,76.0,71.0,67.0,98,94,85,29.90,29.77,4,1,15,0.57
2013-8-7,85.8,74.1,68.1,77.0,72.1,68.0,99,93,74,29.93,29.77,5,1,15,0.61
2013-8-8,87.9,75.3,68.3,75.0,71.2,68.0,99,88,61,29.94,29.82,4,1,12,0.60
2013-8-9,84.6,74.2,68.7,74.0,70.6,67.0,99,89,66,30.00,29.88,2,0,6,0.01
2013-8-10,84.6,73.7,64.3,71.0,67.6,64.0,97,82,60,30.09,30.00,6,1,7,0.13
2013-8-11,84.9,73.8,66.0,75.0,69.7,64.0,97,87,71,30.07,29.98,3,1,5,0.00
2013-8-12,83.9,73.3,67.3,75.0,71.1,67.0,99,93,70,30.02,29.90,5,1,17,0.85
2013-8-13,85.0,72.9,64.1,72.0,66.5,62.0,99,82,58,30.03,29.94,3,1,5,0.00
2013-8-14,78.9,67.5,58.7,62.0,58.5,55.0,95,75,48,30.13,30.04,4,2,6,0.00
2013-8-15,77.9,63.6,52.3,59.0,55.2,50.0,94,76,48,30.12,30.01,3,1,6,0.00
2013-8-16,74.2,64.3,55.7,61.0,57.6,53.0,92,80,61,30.11,30.03,3,1,4,0.00
2013-8-17,81.7,67.1,53.1,65.0,59.6,52.0,97,79,55,30.14,30.04,4,1,5,0.00
2013-8-18,84.2,71.4,59.5,68.0,63.4,58.0,96,77,53,30.12,30.02,4,1,4,0.00
2013-8-19,87.1,73.2,62.1,72.0,65.7,61.0,98,79,52,30.08,29.97,2,0,4,0.00
2013-8-20,89.0,74.9,63.2,70.0,66.1,62.0,94,76,49,30.06,29.98,3,0,5,0.00
2013-8-21,90.6,76.8,64.6,72.0,67.8,62.0,92,75,51,30.08,30.00,4,0,8,0.00
2013-8-22,94.2,79.2,67.2,75.0,69.6,65.0,92,74,46,30.08,29.97,2,0,4,0.00
2013-8-23,94.1,79.6,67.9,76.0,70.6,66.0,94,76,50,30.04,29.96,2,1,3,0.00
2013-8-24,92.2,78.8,69.1,75.0,70.6,68.0,95,78,51,30.12,30.00,3,1,5,0.00
2013-8-25,93.6,79.1,67.0,76.0,70.3,66.0,96,77,48,30.18,30.09,4,1,5,0.00
2013-8-26,93.7,79.3,68.9,76.0,71.9,68.0,98,80,53,30.16,30.04,5,1,7,0.00
2013-8-27,90.8,78.4,67.2,72.0,68.9,66.0,96,75,48,30.07,29.97,5,1,10,0.00
2013-8-28,91.2,79.0,67.4,75.0,70.0,65.0,91,75,53,30.03,29.96,5,0,9,0.00
2013-8-29,95.7,81.9,70.4,79.0,72.9,68.0,91,75,53,30.02,29.92,3,0,5,0.00
2013-8-30,95.0,82.8,71.9,76.0,73.3,70.0,94,75,50,29.95,29.82,4,0,8,0.00
2013-8-31,95.7,82.7,71.0,76.0,72.4,69.0,94,73,49,29.85,29.73,7,1,12,0.00
2013-9-1,89.2,77.9,69.7,74.0,70.9,68.0,95,79,58,29.86,29.72,6,1,10,0.00
2013-9-2,86.0,74.1,64.3,69.0,65.1,61.0,97,76,49,29.95,29.83,4,1,8,0.00
2013-9-3,89.3,72.6,57.9,66.0,60.9,56.0,96,70,41,30.04,29.94,3,0,4,0.00
2013-9-4,89.6,74.4,62.3,66.0,61.3,56.0,83,66,42,30.12,30.02,2,1,5,0.00
2013-9-5,90.0,74.6,62.8,66.0,61.9,59.0,86,67,39,30.16,30.06,4,1,6,0.00
2013-9-6,90.8,74.0,61.1,68.0,63.2,58.0,92,71,41,30.12,29.99,3,1,5,0.00
2013-9-7,93.4,77.7,64.2,72.0,66.2,61.0,94,70,43,30.02,29.90,3,0,8,0.00
2013-9-8,93.6,78.7,69.9,76.0,69.6,64.0,85,74,49,29.93,29.83,4,0,7,0.00
2013-9-9,94.5,81.2,71.0,72.0,68.8,67.0,90,68,42,29.96,29.87,4,0,11,0.00
2013-9-10,93.0,80.3,68.4,70.0,66.2,63.0,88,64,38,30.07,29.94,5,1,10,0.00
2013-9-11,93.7,79.7,69.9,73.0,67.8,64.0,87,68,45,30.09,29.99,3,0,8,0.00
2013-9-12,89.7,76.8,67.7,73.0,68.5,64.0,91,77,53,30.03,29.95,4,0,8,0.00
2013-9-13,77.8,67.4,58.9,64.0,53.6,51.0,83,63,42,30.07,29.98,4,1,5,0.00
2013-9-14,80.1,65.1,53.4,55.0,51.2,46.0,79,63,39,30.09,29.98,4,2,6,0.00
2013-9-15,87.3,70.3,55.7,69.0,57.8,50.0,80,66,47,30.04,29.98,3,1,7,0.00
2013-9-16,75.3,67.7,63.1,69.0,63.9,61.0,96,88,74,30.15,30.02,4,1,6,0.20
2013-9-17,81.8,69.6,60.7,71.0,65.0,60.0,98,86,61,30.15,29.99,4,1,5,0.91
2013-9-18,83.5,72.1,66.1,72.0,68.0,64.0,94,87,66,30.00,29.91,5,1,6,0.08
2013-9-19,88.8,75.3,69.0,74.0,68.8,66.0,94,81,55,29.96,29.83,6,1,12,0.00
2013-9-20,70.4,63.6,55.0,69.0,61.9,52.0,99,94,78,29.93,29.86,14,1,17,2.11
2013-9-21,74.1,59.2,47.4,54.0,49.8,47.0,98,74,43,30.00,29.90,5,1,8,0.01
2013-9-22,78.2,62.5,49.7,56.0,50.7,46.0,89,68,43,29.99,29.87,4,1,5,0.00
2013-9-23,76.6,63.6,52.6,58.0,54.1,49.0,89,73,49,29.93,29.81,7,2,8,0.00
2013-9-24,77.2,66.1,56.3,61.0,58.3,54.0,93,77,56,29.89,29.79,5,1,11,0.00
2013-9-25,81.7,65.4,52.7,64.0,58.9,52.0,98,81,51,29.85,29.78,5,0,5,0.00
2013-9-26,82.8,69.3,58.1,65.0,61.6,57.0,95,78,52,29.94,29.83,4,1,6,0.00
2013-9-27,83.7,71.7,61.3,68.0,63.8,60.0,96,78,52,30.00,29.90,5,2,8,0.00
2013-9-28,78.8,67.4,60.5,69.0,64.0,60.0,98,89,71,30.00,29.88,5,1,8,0.52
2013-9-29,77.0,63.2,53.0,60.0,56.0,53.0,98,80,47,30.04,29.92,4,1,5,0.03
2013-9-30,77.4,66.1,57.1,67.0,62.5,55.0,98,89,66,29.93,29.83,3,1,7,0.00
2013-10-1,84.7,71.2,63.6,70.0,65.9,63.0,99,85,56,29.97,29.87,4,1,9,0.00
2013-10-2,81.5,69.6,64.2,73.0,67.4,64.0,99,93,74,30.00,29.89,3,1,6,0.57
2013-10-3,83.5,71.7,63.7,73.0,67.6,63.0,98,88,68,29.93,29.81,5,1,10,0.01
2013-10-4,84.4,73.3,66.2,72.0,67.9,64.0,98,84,63,29.90,29.82,5,1,8,0.00
2013-10-5,70.1,57.5,45.8,68.0,56.4,45.0,99,96,85,29.97,29.85,5,1,13,1.06
2013-10-6,57.1,49.4,40.4,47.0,43.9,40.0,99,82,63,29.99,29.90,11,2,16,0.01
2013-10-7,73.2,55.6,42.4,53.0,47.2,42.0,97,76,46,30.14,29.99,6,0,8,0.00
2013-10-8,70.9,58.6,48.3,54.0,49.4,45.0,88,73,52,30.16,30.06,5,1,8,0.00
2013-10-9,74.7,60.0,47.7,55.0,50.1,44.0,89,72,47,30.13,30.04,3,1,5,0.00
2013-10-10,75.6,61.9,51.3,59.0,54.9,50.0,96,79,52,30.11,29.93,3,1,5,0.00
2013-10-11,77.5,64.8,54.9,65.0,59.8,54.0,98,85,64,29.96,29.84,6,1,8,0.01
2013-10-12,71.4,61.9,54.8,62.0,57.3,48.0,97,85,65,30.16,29.88,9,1,12,0.43
2013-10-13,71.7,60.2,54.5,51.0,46.2,42.0,76,61,46,30.34,30.16,6,2,8,0.00
2013-10-14,63.9,59.0,54.2,59.0,51.1,41.0,94,76,59,30.27,29.98,7,2,10,0.01
2013-10-15,61.1,57.3,49.0,61.0,55.6,47.0,98,94,85,30.02,29.87,6,1,8,0.51
2013-10-16,59.1,48.4,39.4,47.0,43.2,38.0,94,83,62,30.10,29.99,5,1,9,0.00
2013-10-17,61.6,51.0,43.2,47.0,44.1,42.0,97,79,52,30.05,29.97,7,1,10,0.00
2013-10-18,59.9,47.2,38.9,49.0,43.1,38.0,97,86,63,30.07,29.98,4,1,8,0.22
2013-10-19,55.8,43.1,33.2,42.0,37.3,32.0,97,82,51,30.12,30.02,10,2,13,0.05
2013-10-20,68.0,51.3,37.9,45.0,40.7,36.0,93,71,39,30.04,29.89,7,1,13,0.00
2013-10-21,53.7,48.4,38.9,45.0,41.8,36.0,90,78,64,30.10,29.96,4,0,8,0.00
2013-10-22,62.5,47.6,34.9,47.0,39.9,33.0,96,77,52,30.09,29.91,10,1,16,0.00
2013-10-23,56.6,42.6,31.2,41.0,35.8,30.0,96,78,51,30.19,30.04,4,1,7,0.00
2013-10-24,50.5,42.3,35.2,38.0,32.7,28.0,92,70,44,30.44,30.11,5,1,9,0.00
2013-10-25,54.3,41.1,27.1,32.0,28.4,25.0,92,64,36,30.53,30.24,5,1,8,0.00
2013-10-26,64.0,49.3,37.7,53.0,42.5,32.0,87,77,66,30.24,30.08,6,1,11,0.00
2013-10-27,67.4,49.7,36.9,43.0,36.6,30.0,92,63,35,30.12,29.99,5,1,5,0.00
2013-10-28,66.2,53.3,44.9,55.0,49.0,43.0,98,87,60,30.18,30.04,4,1,5,0.00
2013-10-29,62.4,57.1,50.7,62.0,56.5,49.0,98,97,94,30.17,29.99,7,2,12,1.31
2013-10-30,65.1,62.1,59.0,63.0,61.4,58.0,98,97,93,30.04,29.81,5,2,12,0.55
2013-10-31,71.1,57.5,45.2,65.0,56.2,45.0,99,95,74,29.79,29.39,8,2,17,0.17
2013-11-1,62.4,49.9,41.1,47.0,43.5,40.0,98,81,49,29.96,29.69,7,1,13,0.01
2013-11-2,53.5,44.4,35.7,42.0,38.6,34.0,93,81,58,30.23,29.95,7,1,11,0.00
2013-11-3,49.8,43.8,34.7,41.0,37.8,33.0,93,80,70,30.23,30.07,8,2,12,0.00
2013-11-4,56.2,50.5,46.9,49.0,44.6,40.0,96,80,73,30.19,30.05,7,2,11,0.00
2013-11-5,56.9,52.9,49.9,56.0,52.3,49.0,98,97,96,30.17,29.96,8,3,14,0.59
2013-11-6,57.4,44.3,37.4,57.0,42.8,35.0,98,94,86,30.35,29.88,8,2,14,0.58
2013-11-7,57.2,41.8,29.5,41.0,33.9,29.0,98,76,45,30.46,30.34,6,1,16,0.01
2013-11-8,61.6,47.5,35.6,41.0,35.8,31.0,86,66,41,30.37,30.08,6,2,12,0.00
2013-11-9,65.1,52.3,42.8,45.0,41.3,38.0,84,68,47,30.27,30.10,8,1,15,0.00
2013-11-10,66.8,51.7,41.8,43.0,37.0,33.0,93,60,32,30.39,30.27,6,1,7,0.00
2013-11-11,61.0,50.8,35.9,52.0,43.2,34.0,94,76,63,30.42,30.17,7,2,19,0.00
2013-11-12,35.9,28.7,20.8,34.0,19.2,14.0,94,69,42,30.75,30.43,8,2,14,0.00
2013-11-13,47.9,36.6,18.3,21.0,17.9,13.0,83,49,28,30.73,30.36,4,2,10,0.00
2013-11-14,53.9,41.3,27.9,27.0,22.1,18.0,71,49,28,30.35,30.06,9,2,12,0.00
2013-11-15,54.9,46.5,40.6,47.0,40.3,27.0,94,79,51,30.07,29.88,7,3,10,0.01
2013-11-16,68.1,59.4,48.9,61.0,55.3,47.0,95,86,72,29.89,29.60,10,4,21,0.00
2013-11-17,72.3,64.1,49.3,64.0,45.5,23.0,92,55,27,30.01,29.48,21,6,38,0.00
2013-11-18,57.2,46.8,36.6,39.0,30.6,25.0,85,56,32,30.29,30.02,5,2,8,0.00
2013-11-19,53.9,46.5,40.7,33.0,27.3,21.0,63,48,33,30.29,30.11,12,4,14,0.00
2013-11-20,55.5,46.3,37.7,34.0,30.2,24.0,75,55,39,30.11,29.94,15,6,15,0.00
2013-11-21,52.0,47.4,44.2,47.0,44.1,34.0,98,90,52,30.23,30.02,8,2,11,0.91
2013-11-22,44.5,30.3,27.5,44.0,29.6,27.0,98,97,95,30.56,30.23,13,3,17,0.00
2013-11-23,37.0,28.1,16.5,28.0,20.4,11.0,95,74,56,30.72,30.55,6,3,10,0.00
2013-11-24,27.3,20.6,12.1,12.0,9.7,6.0,86,65,41,30.74,30.44,7,3,9,0.00
2013-11-25,33.5,29.2,26.0,29.0,22.1,10.0,91,76,50,30.43,30.21,6,2,9,0.01
2013-11-26,41.2,31.6,21.6,32.0,25.1,14.0,90,77,61,30.34,30.14,10,3,16,0.00
2013-11-27,32.0,22.6,14.5,14.0,12.0,10.0,84,65,44,30.45,30.34,7,2,12,0.00
2013-11-28,50.3,34.7,22.0,30.0,22.3,12.0,74,62,45,30.49,30.33,12,2,20,0.00
2013-11-29,52.2,39.4,29.5,32.0,28.1,23.0,78,65,45,30.54,30.36,7,3,9,0.00
2013-11-30,59.6,45.3,33.5,43.0,36.7,28.0,87,73,55,30.35,30.12,12,2,15,0.00
2013-12-1,54.6,46.8,41.5,50.0,44.2,40.0,96,90,82,30.15,29.88,4,1,8,0.00
2013-12-2,58.0,47.8,42.0,50.0,44.9,41.0,98,90,70,29.89,29.67,5,1,8,0.00
2013-12-3,59.3,49.0,42.3,54.0,47.3,41.0,99,94,78,29.68,29.57,11,4,11,0.01
2013-12-4,64.0,48.4,30.9,53.0,44.6,29.0,97,88,56,29.92,29.56,12,4,16,0.00
2013-12-5,30.8,21.7,16.6,28.0,18.5,15.0,93,88,78,30.35,29.92,9,2,14,0.00
2013-12-6,18.1,15.5,10.4,16.0,12.5,4.0,93,88,74,30.63,30.30,0,0,0,0.00
2013-12-7,18.0,12.2,5.2,11.0,5.1,0.0,82,73,60,30.73,30.41,0,0,0,0.00
2013-12-8,25.1,18.5,15.8,24.0,13.9,7.0,96,83,64,30.41,30.08,9,3,13,0.00
2013-12-9,25.1,20.6,17.0,24.0,17.0,13.0,95,86,71,30.40,30.20,6,1,13,0.00
2013-12-10,31.8,21.2,8.2,17.0,13.4,6.0,93,74,51,30.48,30.34,5,1,8,0.00
2013-12-11,31.8,24.4,14.1,23.0,15.5,6.0,92,69,55,30.68,30.37,5,2,11,0.00
2013-12-12,41.4,25.6,11.5,20.0,13.4,5.0,76,62,40,30.68,30.34,11,2,11,0.00
2013-12-13,32.2,30.0,26.0,30.0,26.1,16.0,97,86,63,30.33,29.90,9,3,11,0.00
2013-12-14,31.0,28.0,23.1,30.0,27.1,22.0,98,96,94,30.25,29.87,6,2,12,0.00
2013-12-15,44.3,30.0,16.0,35.0,25.8,15.0,95,85,66,30.28,30.13,6,1,9,0.40
2013-12-16,60.1,45.7,36.1,36.0,33.0,31.0,81,63,39,30.14,30.05,5,1,7,0.07
2013-12-17,49.1,38.8,29.4,35.0,30.3,26.0,92,73,50,30.32,30.11,7,1,14,0.00
2013-12-18,60.8,43.1,29.4,39.0,31.3,24.0,82,65,40,30.32,29.96,10,4,14,0.00
2013-12-19,55.0,50.9,46.3,52.0,45.7,39.0,90,82,74,29.96,29.73,9,4,15,0.00
2013-12-20,59.7,43.4,29.2,57.0,41.7,29.0,97,94,87,29.87,29.72,8,3,13,0.04
2013-12-21,33.6,31.5,29.5,33.0,30.9,29.0,98,97,97,29.81,29.54,10,2,14,1.19
2013-12-22,34.4,27.3,22.2,34.0,25.8,20.0,98,94,90,30.38,29.71,13,4,15,0.00
2013-12-23,24.8,18.4,12.9,20.0,15.4,11.0,94,88,76,30.64,30.38,5,2,11,0.00
2013-12-24,30.7,20.1,8.2,21.0,14.5,6.0,93,80,64,30.64,30.36,10,4,15,0.00
2013-12-25,37.2,29.2,24.5,32.0,26.0,19.0,97,88,79,30.42,30.34,5,2,12,0.00
2013-12-26,47.7,32.5,19.9,35.0,25.9,19.0,98,79,51,30.45,30.33,6,1,11,0.01
2013-12-27,56.1,41.2,30.4,34.0,29.5,26.0,86,66,40,30.44,30.32,7,1,11,0.00
2013-12-28,52.3,41.6,34.0,34.0,29.6,27.0,74,63,42,30.32,29.95,5,1,10,0.00
2013-12-29,41.5,27.7,17.3,36.0,22.5,12.0,91,81,67,30.30,29.93,11,3,16,0.00
2013-12-30,34.9,21.0,9.1,18.0,10.9,5.0,84,67,40,30.39,30.28,5,1,8,0.00
2013-12-31,52.4,35.5,20.7,28.0,21.8,15.0,81,60,36,30.44,30.21,7,2,11,0.00
2014-1-1,46.8,35.5,19.5,30.0,26.6,18.0,92,71,53,30.21,29.92,9,4,19,0.00
2014-1-2,19.2,12.2,7.0,17.0,7.9,1.0,92,83,62,30.55,30.12,15,3,16,0.00